GFSNW_prec_radar_132.txt.gz
Reflectivity
-20 -20 -20 -20 -17 17 27 22 20 22 23 31 16 11 -19 -20 10 1 6 -20 -20 -20 -20 -20 -2 7 -20 -13 13 14 4 0 -8 -20 -20 -20 2 3 12 11 5 -1 20 -9
13 -13 -20 -20 24 16 11 32 34 26 19 9 7 -8 -9 5 16 2 -20 -20 -20 -20 -10 -20 -20 -6 15 15 16 9 -6 -18 -20 -20 -13 -20 -20 5 -20 -9 -0 -19 16 -13
10 -16 17 37 37 35 18 24 26 35 31 20 -17 -2 -7 -5 -19 6 -20 -16 -20 -8 -9 -20 -20 11 10 16 4 8 3 -14 -20 23 15 -5 -20 -20 -20 -20 -7 -4 -8 -20
11 7 9 30 40 40 42 20 5 20 18 22 8 -18 -16 -20 10 -20 -20 0 -20 12 12 -12 -14 -20 -4 -5 -20 -20 -16 -8 -20 -20 -20 -20 -20 -20 -19 -5 -5 15 -19 -20
17 4 25 34 39 33 25 14 -17 -20 -20 23 1 9 25 1 -1 -20 -8 -20 -7 -20 -4 -2 7 11 12 -10 -20 -20 -4 10 -20 -20 -20 -20 -20 -20 -20 -20 -20 -20 -20 -20
22 1 29 31 32 32 27 -14 -20 -20 -20 -1 4 25 -20 -20 11 13 -20 -8 11 4 -20 -20 -20 -20 -20 -18 -20 -20 4 11 -3 -16 -20 -4 3 -20 -20 -12 -20 -17 -15 -20
23 25 32 31 36 33 33 25 9 -20 6 -3 -14 -20 -9 20 6 5 13 5 -0 1 8 8 -17 -20 -11 -17 12 21 10 9 21 13 -9 14 -18 -20 -20 -20 -20 -20 -20 -20
-3 20 32 31 28 34 33 35 29 26 16 11 20 -8 8 23 -1 17 18 8 6 6 12 -7 -8 -20 -20 -20 -20 -20 -19 10 15 11 13 -18 -2 -20 -20 -20 -20 -20 -20 -20
15 24 29 14 6 19 28 28 27 18 29 33 16 11 19 27 14 13 17 -10 -11 6 -14 -20 -20 -20 -20 1 -19 -20 -20 -20 7 14 16 15 -17 -20 -20 -20 -18 -20 -20 -20
19 31 29 20 17 28 18 22 15 21 19 4 11 13 23 -1 3 6 6 7 -3 -14 -20 3 -20 -20 -20 9 -20 -20 -2 8 -9 2 7 -10 -20 -20 -20 -12 -19 -20 -20 -20
25 31 30 26 28 19 18 22 21 22 17 15 -6 -14 9 4 -13 -15 -3 -13 -20 -20 -19 -20 -20 4 -20 -18 -1 -2 -20 10 11 -8 2 14 -20 -20 -7 -17 -20 -20 -20 -20
19 28 25 25 7 4 4 38 32 29 1 22 8 16 11 12 -5 -18 -20 -20 -20 -20 -20 -20 -20 -20 -20 -20 8 -20 -1 -18 -1 -20 -18 -20 -20 -20 -20 -20 -20 -20 -20 -20
16 20 8 14 -9 -8 -20 23 0 -20 -20 -7 -16 -17 -17 -20 -18 -0 -20 -20 -20 -20 -20 -20 6 -20 -20 -20 5 -19 -20 -20 -20 -20 -20 -20 -20 -20 -20 -20 -20 -20 -20 -20
21 10 -6 -20 -20 -2 2 20 -20 -20 -20 -18 -14 -17 -20 -20 -20 -20 -20 -20 -20 -20 -20 -20 -20 -6 -20 -6 -2 8 -12 -20 -20 -20 -20 -20 -20 -19 -20 -20 -19 -20 -20 -20
10 6 -18 -20 -12 4 -18 -20 -20 -14 -17 -15 4 -20 -20 -20 -20 -20 -20 -20 -20 -20 -20 -20 -20 -20 -20 -20 -20 -20 -20 -19 -20 -20 -20 -20 -19 -15 -20 -11 10 5 -6 -11
-19 8 -20 -20 -17 -6 -20 9 -20 -20 -20 -15 4 -4 -20 -20 -20 -20 -20 -20 -20 -20 -20 -20 -20 -20 -15 1 -20 -20 -20 -20 -20 -20 -20 -20 -20 -20 -20 -20 -19 -16 -6 -10
11 -2 -20 -20 -8 -7 -20 -19 -20 -20 -20 -20 5 -9 2 -20 -20 -20 -20 -20 -20 -20 -20 -20 -20 -20 -20 -8 -10 -20 -20 -20 -20 -20 -20 -20 -20 -20 -20 -20 -20 -20 -20 -20
-6 -20 -20 -15 0 -17 -20 -20 -20 -20 -18 -20 4 12 -11 -20 -20 -20 -20 -20 -20 -20 -20 -20 -20 -20 -20 -20 0 -20 -20 -20 -20 -20 -20 -20 -20 -20 -20 -20 -20 -20 -20 -20
-9 -20 -20 -9 -17 -20 -20 -20 -20 -20 -20 7 6 -6 2 -20 -6 -20 -20 -20 -3 -20 -16 -8 -20 -9 -20 -20 -20 -20 -20 -20 -20 -20 -20 -20 -20 -20 -20 -20 -20 -20 -20 -20
-20 -20 -20 15 1 -10 -20 -20 9 -20 -20 -19 -1 -14 -20 -17 -20 -17 -20 -20 -20 -19 -0 -20 -20 4 -20 -20 -20 -20 -20 -20 -20 -20 -20 -20 -20 -20 -20 -20 -20 -20 -20 -20
-20 -18 0 0 -19 -20 -20 -20 -20 -20 -20 -16 7 -20 -20 -20 -10 -20 -8 3 -20 -4 -20 -20 -7 4 -20 -20 -20 -20 -20 -20 -20 -20 -20 -20 -20 -20 -20 -20 -20 -20 -20 -20
-20 -17 6 -20 -20 -20 -20 -20 -20 -20 2 -18 6 4 -20 -20 -20 -20 -20 -20 -14 5 -20 -20 -20 -19 -20 -20 -20 -20 -20 -20 -20 -20 -20 -20 -20 -20 -20 -20 -20 -20 -20 -20
-0 5 3 1 -20 -3 -20 -20 -20 4 -12 -12 -5 1 -20 -20 -11 -19 -20 -17 2 -19 -20 -20 11 -20 -20 -20 -20 -20 -20 -20 -20 -20 -20 -20 -20 -20 -20 -20 -20 -20 -20 -20
-20 -20 -19 16 -20 -19 -12 -17 -19 -20 -20 -0 7 -17 8 -13 -19 1 -18 -18 -19 -10 -8 -18 -14 -20 -20 -20 -20 -20 -20 -20 -20 -20 -20 -20 -20 -20 -20 -20 -20 -20 -20 -20
-4 12 -11 -10 -3 -9 -7 -14 -20 -20 6 -0 10 -12 -20 -11 -20 -8 -20 -20 -20 -20 -16 -8 -20 -20 -20 -20 -20 -20 -20 -20 -20 -20 -20 -20 -20 -20 -20 -20 -20 -20 -20 -20
-8 -20 -3 6 1 -5 -13 -4 0 -20 -8 20 -6 -20 -20 -20 -20 -20 -20 -20 -20 -20 -0 -20 -20 -20 -20 -20 -20 -20 -20 -20 -20 -20 -20 -20 -20 -20 -20 -20 -20 -20 -20 -20
7 5 2 20 1 -1 -2 9 -20 -20 11 13 -19 3 -20 -20 -20 -20 -20 5 8 -7 -20 -20 -20 -20 -20 -20 -20 -20 -20 -20 -20 -20 -20 -20 -20 -20 -20 -20 -20 -20 -20 -20

GFSNW_prec_radar_138.txt.gz
Reflectivity
-20 -20 17 15 13 -19 19 13 11 12 0 9 16 2 -20 -20 -20 -20 -20 -20 -20 -20 -20 -20 -20 -20 -20 -20 -20 -20 -20 -20 -20 -20 -16 -12 13 6 -4 -20 -20 -6 -20 -20
-20 6 12 -20 -20 -20 2 13 9 18 -16 8 -4 -18 -16 -20 -20 -20 -20 -20 -20 -20 -20 -20 -20 -20 -16 6 -20 -20 -20 -20 -20 -20 10 14 24 -1 -20 -20 -20 -17 -20 -20
-15 8 11 -20 -20 -20 26 -10 5 20 25 -2 -20 -16 -15 1 -16 -20 -20 -20 -20 -20 -20 -20 -20 -20 -20 -20 -20 -20 -20 -20 -20 -20 -9 -17 -15 -20 -12 -18 -2 -13 -20 -20
4 9 -6 -20 -20 25 11 -1 -18 -8 18 21 -17 -20 -20 -6 4 -8 5 -6 -12 -20 -20 -20 -20 -20 -20 -20 -20 -14 -12 -8 -11 -6 19 10 -20 -3 -3 2 -3 -20 -20 -20
7 10 -1 -20 -7 27 17 3 4 4 -17 -20 5 6 9 -20 -4 -20 -20 -20 -20 -20 -20 -20 -20 -20 -20 -20 -11 29 7 8 -0 8 24 -1 -20 11 -13 4 -20 -20 -20 -20
0 11 -14 -9 -3 5 22 31 33 28 19 29 32 25 15 -20 -8 8 -18 -7 -11 13 -20 -20 -20 -2 0 -12 5 26 -3 15 -9 -20 -7 -6 1 -20 -20 -20 -20 -20 -20 -20
10 5 0 11 -11 -8 -0 31 8 13 -2 22 17 27 16 15 -9 14 6 -15 -6 -20 -20 -19 -20 5 -7 -15 4 -5 11 3 4 -8 -2 9 -20 -20 -20 -20 -20 -20 -20 -20
-20 13 10 8 8 9 3 23 22 16 12 9 33 37 31 25 20 28 -20 -17 -20 -20 12 -14 5 6 7 -14 3 -7 -20 -0 9 9 -1 -20 -20 -20 -20 -20 -20 -20 -20 -20
13 -5 20 20 -18 -20 9 25 23 24 26 -6 6 1 -20 15 21 7 28 24 -18 -1 -17 2 12 10 6 15 12 19 19 18 15 -19 14 -9 -20 -20 -20 -20 -20 -20 -20 -20
5 2 3 22 -19 -13 -6 -1 23 22 9 -20 -20 -5 -20 7 -11 3 19 -20 12 -11 9 -5 6 7 -20 9 -20 -3 31 23 3 -20 -19 -20 -20 -20 -20 -20 -20 -20 -20 -20
15 16 18 -17 12 17 16 -17 -14 19 11 -20 -1 -14 -20 -20 -15 -18 -20 -16 1 9 11 6 -8 -20 -20 -20 -20 -20 -20 -3 -20 -20 -19 -19 -20 -20 -20 -20 -20 -20 -20 -20
-5 6 -3 20 15 21 16 -20 -7 -3 26 -4 -10 -11 -11 -7 7 -1 -1 12 15 9 9 -1 1 -20 -20 -4 -13 -20 -20 -20 -20 -20 -20 -20 -20 -20 -20 -20 -20 -20 -20 -20
11 10 10 13 17 21 20 10 27 30 15 15 19 26 19 25 23 14 19 15 18 9 -10 -10 -20 9 -20 6 -8 -16 -3 -20 -20 -20 -20 -20 -20 -20 -20 -20 -20 -20 -20 -20
-20 2 18 17 27 31 28 31 32 13 -20 16 28 -12 -16 7 -3 -13 -11 25 10 9 -3 -5 -20 -19 -20 -20 -20 -20 -20 -20 -20 -20 -20 -20 -20 -20 -20 -20 -20 -20 -20 -20
-12 28 19 28 34 33 33 32 2 -4 15 12 22 5 12 -2 -8 -5 -6 -14 -16 -19 -20 -20 -20 -20 -20 -20 -20 -20 -20 -20 -20 -20 -20 -20 -20 -20 -20 -20 -20 -20 -20 -20
25 12 19 31 32 33 32 36 25 17 -20 -7 -12 -2 16 -20 -19 -20 -20 -8 -20 -20 -20 -20 -20 -20 -20 -20 -20 -20 -20 -20 -20 -20 -20 -20 -20 -20 -20 -20 -20 -20 -20 -20
23 29 27 31 30 19 -6 -20 -20 -15 -20 8 -15 -20 -20 -20 -20 -20 -20 -20 -20 -20 -20 -20 -20 -20 -20 -20 -20 -20 -20 -20 -20 -20 -20 -20 -20 -20 -20 -20 -20 -20 -20 -20
1 19 31 22 -17 -11 -20 -19 -20 -20 -20 -19 -17 -20 -20 -20 -20 -20 -20 -20 -20 -20 -20 -20 -20 -20 -20 -20 -20 -20 -20 -20 -20 -20 -20 -20 -20 -20 -20 -20 -20 -20 -20 -20
21 22 25 -5 -6 -20 -20 -20 -20 -20 -20 -20 -20 -20 -20 -20 -20 -20 -20 -20 -20 -20 -20 -20 -20 -20 -20 -20 -20 -20 -20 -20 -20 -20 -20 -20 -20 -20 -20 -20 -20 -20 -20 -20
15 3 10 -11 -20 -20 -20 -20 -20 -20 -20 -20 -20 -20 -20 -20 -20 -20 -20 -20 -20 -20 -20 -20 -20 -20 -20 -20 -20 -20 -20 -20 -20 -20 -20 -20 -20 -20 -20 -20 -20 -20 -20 -20
-8 -20 9 -20 -20 -20 -20 -20 -20 -20 -20 -20 -20 -20 -20 -20 -20 -20 -20 -20 -20 -20 -20 -20 -20 -20 -20 -20 -20 -20 -20 -20 -20 -20 -20 -20 -20 -20 -20 -20 -20 -20 -20 -20
-20 -1 1 -20 -20 -20 -20 -20 -20 -20 -20 -20 -20 -20 -20 -20 -20 -20 -20 -20 -20 -20 -20 -20 -20 -20 -20 -20 -20 -20 -20 -20 -20 -20 -20 -20 -20 -20 -20 -20 -20 -20 -20 -20
-19 -1 -20 -20 -20 -20 -20 -20 -20 -20 -20 -20 -20 -20 -20 -20 -20 -20 -20 -20 -20 -20 -20 -20 -20 -20 -20 -20 -20 -20 -20 -20 -20 -20 -20 -20 -20 -20 -20 -20 -20 -20 -20 -20
-20 -16 -20 -20 -20 -20 -20 -20 -20 -20 -20 -20 -20 -20 -20 -20 -20 -20 -20 -20 -20 -20 -20 -20 -20 -20 -20 -20 -20 -20 -20 -20 -20 -20 -20 -20 -20 -20 -20 -20 -20 -20 -20 -20
-20 -20 -20 -20 -20 -20 -11 -20 -20 -20 -20 -20 -20 -20 -20 -20 -20 -20 -20 -20 -20 -20 -20 -20 -20 -20 -20 -20 -20 -20 -20 -20 -20 -20 -20 -20 -20 -20 -20 -20 -20 -20 -20 -20
-20 -20 -20 -20 -20 -20 -20 -20 -20 -20 -20 -20 -20 -20 -20 -20 -20 -20 -20 -20 -20 -20 4 -20 -20 -20 -20 -20 -20 -20 -20 -20 -20 -20 -20 -20 -20 -20 -20 -20 -20 -20 -20 -20
-20 -19 -20 -2 -20 -20 -20 -20 -20 -20 -20 -20 -20 -20 -20 -20 -20 -20 -20 -20 -20 -19 -20 -20 -20 -20 -20 -20 -20 -20 -20 -20 -20 -20 -20 -20 -20 -20 -20 -20 -20 -20 -20 -20

GFSNW_prec_radar_141.txt.gz
Reflectivity
15 -2 -20 -20 4 10 19 -14 -2 -20 9 3 13 -4 -20 -20 -20 -20 -20 -20 -20 -20 -20 -20 -20 -20 -20 -20 -20 -20 -20 -20 -20 -20 -14 5 -19 -20 -15 23 -2 -20 -20 -20
-4 -16 -20 -15 11 15 9 13 7 2 -19 7 -6 -4 -18 -17 -20 -20 -20 -20 -20 -20 -20 -20 -20 -20 -20 -20 -20 -20 -20 -20 -20 -20 -20 -20 9 10 22 13 -5 -19 -18 -20
-15 -13 -20 -20 -1 11 15 11 5 20 20 -13 -20 -20 -20 -20 -20 -20 -20 -20 -20 -20 -20 -20 -13 -20 -20 -20 -20 -20 -7 -20 -20 -20 -16 -20 -18 -20 18 19 13 -20 -20 -20
10 -5 7 -20 -20 11 24 17 10 -9 9 24 1 -20 -20 -20 -16 -5 -20 -20 -20 -20 -20 -20 -20 -20 -20 -20 -20 -20 16 9 -20 -13 2 19 -16 -20 -7 10 12 -17 -20 13
15 20 6 10 -9 -20 24 17 11 -2 -20 -20 -12 -7 -20 -20 -20 -5 -8 -20 -20 -20 -20 -20 -20 -20 -20 -20 -20 24 -20 3 18 -20 -20 -20 21 20 8 -7 -20 -20 -20 -20
18 15 -16 -19 10 -16 22 23 6 -5 -10 -20 -10 -20 -20 -20 -20 15 -17 -20 -20 -20 -4 -20 -20 -20 -1 8 -6 17 -2 23 15 10 -8 14 6 -17 -18 -11 -20 -20 -20 -20
18 11 6 9 13 -11 -16 15 25 30 4 -15 -14 -16 4 6 -18 -14 -9 16 -7 1 -0 -13 -20 6 -1 -13 -20 -20 12 29 22 9 2 5 2 2 -15 -20 -20 -20 -20 -20
13 5 -19 -15 18 2 -20 -4 21 27 6 -20 -20 -2 9 10 9 19 25 12 -11 17 -14 18 28 10 -20 -20 -20 2 1 20 17 14 -12 -20 -17 -20 -20 -20 -20 -20 -20 -20
11 -6 -13 10 -12 24 -0 -11 6 28 23 -16 -20 -9 1 26 29 9 25 4 -20 -5 18 15 -6 -20 -20 -15 -13 -11 12 14 14 -19 1 9 -20 -20 -20 -20 -20 -20 -20 -20
15 -8 1 11 16 17 -7 -20 10 25 26 -10 -16 5 -9 5 29 20 -20 -20 -7 -18 33 3 -16 -4 -20 0 2 -20 9 1 20 -7 0 -20 -20 -20 -20 -20 -20 -20 -20 -20
3 13 1 2 16 24 11 -13 -3 27 30 -2 -20 -20 -20 -12 -20 -19 16 -5 -4 29 11 -2 -4 -20 -15 -9 -8 11 -15 8 18 21 -4 -19 -20 -20 -20 -20 -20 -20 -20 -20
-2 11 14 -0 21 8 16 11 -9 21 29 26 -20 12 23 19 -9 -16 -20 -20 6 -16 -10 -19 -2 -20 -20 -20 9 -20 -20 -20 -20 -20 -20 -20 -20 -20 -20 -20 -20 -20 -20 -20
-14 17 -5 16 16 -6 24 -1 2 27 25 15 -9 5 19 3 -20 -4 2 -19 -5 -18 -20 -15 1 -11 -20 -20 -20 -13 -20 -20 -20 -20 -20 -20 -20 -20 -20 -20 -20 -20 -20 -20
-10 7 -1 17 20 23 8 -9 -1 36 22 12 9 -7 -11 -18 12 4 16 24 20 17 14 8 12 -14 -12 -4 -16 -20 -20 -20 -20 -20 -20 -20 -20 -20 -20 -20 -20 -20 -20 -20
7 10 15 9 17 15 14 10 16 31 23 22 23 -8 0 -14 -3 -5 -8 8 24 23 13 9 -20 -20 8 -20 -20 -20 -20 -20 -20 -20 -20 -20 -20 -20 -20 -20 -20 -20 -20 -20
-20 13 19 23 22 32 30 41 28 30 24 20 14 18 -20 -20 -8 -13 -20 -16 8 7 -9 -11 -20 -19 -19 -19 -20 -20 -20 -20 -20 -20 -20 -20 -20 -20 -20 -20 -20 -20 -20 -20
4 14 24 33 35 34 32 23 18 11 7 9 -7 8 -20 -20 -20 -20 -20 3 3 -19 -20 -20 -20 -20 -20 -20 -20 -20 -20 -20 -20 -20 -20 -20 -20 -20 -20 -20 -20 -20 -20 -20
-3 29 36 40 38 34 30 25 9 5 17 13 -1 -12 -20 -20 -20 -20 -20 -20 -20 -20 -20 -20 -20 -20 -20 -20 -20 -20 -20 -20 -20 -20 -20 -20 -20 -20 -20 -20 -20 -20 -20 -20
33 36 40 29 24 29 22 16 11 9 -1 8 -19 -20 -20 -20 -20 -20 -20 -20 -20 -20 -20 -20 -20 -20 -20 -20 -20 -20 -20 -20 -20 -20 -20 -20 -20 -20 -20 -20 -20 -20 -20 -20
36 24 15 27 -6 -16 6 -14 -17 -20 -20 -20 -19 -20 -20 -20 -20 -20 -20 -20 -20 -20 -20 -20 -20 -20 -20 -20 -20 -20 -20 -20 -20 -20 -20 -20 -20 -20 -20 -20 -20 -20 -20 -20
24 12 13 -7 -17 -3 -8 -20 -20 -20 -20 -20 -20 -20 -20 -20 -20 -20 -20 -20 -20 -20 -20 -20 -20 -20 -20 -20 -20 -20 -20 -20 -20 -20 -20 -20 -20 -20 -20 -20 -20 -20 -20 -20
-2 -19 15 1 -20 -16 -20 -20 -20 -20 -20 -20 -20 -20 -20 -20 -20 -20 -20 -20 -20 -20 -20 -20 -20 -20 -20 -20 -20 -20 -20 -20 -20 -20 -20 -20 -20 -20 -20 -20 -20 -20 -20 -20
1 -5 -18 -18 -20 -19 -20 -20 -20 -20 -20 -20 -20 -20 -20 -20 -20 -20 -20 -20 -20 -20 -20 -20 -20 -20 -20 -20 -20 -20 -20 -20 -20 -20 -20 -20 -20 -20 -20 -20 -20 -20 -20 -20
0 -20 -20 -20 -20 -20 -20 -20 -20 -20 -20 -20 -20 -20 -20 -20 -20 -20 -20 -20 -20 -20 -20 -20 -20 -20 -20 -20 -20 -20 -20 -20 -20 -20 -20 -20 -20 -20 -20 -20 -20 -20 -20 -20
-20 -20 -20 -20 -20 -20 -11 -20 -20 -20 -20 -20 -20 -20 -20 -20 -20 -20 -20 -20 -20 -20 -20 -20 -20 -20 -20 -20 -20 -20 -20 -20 -20 -20 -20 -20 -20 -20 -20 -20 -20 -20 -20 -20
-20 -20 -20 -20 -20 -20 -20 -20 -20 -20 -20 -20 -20 -20 -20 -20 -20 -20 -20 -20 -20 -20 -20 -20 -20 -20 -20 -20 -20 -20 -20 -20 -20 -20 -20 -20 -20 -20 -20 -20 -20 -20 -20 -20
-20 -19 -20 -20 -20 -20 -20 -20 -20 -20 -20 -20 -20 -20 -20 -20 -20 -20 -20 -20 -5 -20 -20 -20 -20 -20 -20 -20 -20 -20 -20 -20 -20 -20 -20 -20 -20 -20 -20 -20 -20 -20 -20 -20

GFSNW_prec_radar_147.txt.gz
Reflectivity
-10 -14 -4 -20 -20 -20 12 -18 -20 -20 -20 -19 -19 -20 -20 -20 -20 -20 -20 -20 -20 -20 -20 -20 -20 -20 -20 -20 -20 -20 -20 -20 -20 -20 -20 -20 -20 -20 -10 20 23 5 0 -20
-20 -20 -14 -7 -20 -15 -20 -14 -20 -17 -20 -20 -12 -20 -20 -20 -20 -20 -20 -20 -20 -20 -20 -20 -20 -20 -20 -20 -20 -20 -20 -20 -20 -20 -20 -18 -20 -20 -4 13 -15 -20 17 -12
-20 -10 -19 8 -20 -20 -20 -13 -2 10 6 -18 -20 -20 -20 -20 -20 -20 -20 -20 -20 -20 -20 -20 -20 -20 -20 -20 -20 -20 -3 -20 -20 -20 -20 -20 -20 -20 -20 22 21 1 -2 -20
-12 -6 4 9 -15 -20 -16 9 -20 -20 -10 -5 -2 -20 -20 -20 -20 -20 -20 -20 -20 -20 -20 -20 -20 -20 -20 -20 -20 -20 9 -20 -20 -20 -20 -12 -20 -20 -20 -15 -20 12 -20 -20
-20 17 -20 -20 -20 -19 14 7 -13 -20 -20 -20 -3 -20 -20 -20 -20 -20 -20 -20 -20 -20 -20 -20 -20 -20 7 8 14 19 10 -8 -20 -20 -20 -20 -20 -20 -20 -20 -20 -9 -0 -20
-20 -19 20 -20 -20 13 15 22 -20 -11 -20 -20 -4 -16 -18 -20 -20 -20 -20 -20 -20 -20 -20 -12 -20 -20 -20 -20 -20 -20 -20 -5 -9 -20 -20 -20 -19 -20 -20 -20 -20 -20 -20 -20
9 4 -0 -6 -6 -14 -20 -20 3 -7 -19 -5 -15 -20 -20 -20 -20 -20 -20 -20 -19 0 14 -0 -12 -11 -17 3 -2 -11 -20 1 19 -1 12 2 -20 -20 -20 -20 -20 -20 -20 -20
-13 -20 -16 -20 -20 14 -18 4 16 2 5 8 -11 -20 -7 -20 -20 -16 7 -20 -20 -5 30 31 8 -16 -20 -20 -20 -20 -20 12 23 15 3 -20 -20 -20 -20 -20 -20 -20 -20 -20
9 -5 11 -17 0 18 -15 -17 -19 17 17 -16 -20 -15 20 7 -20 -20 -20 -20 -20 10 33 18 14 -20 -20 -18 -20 -20 -13 22 15 21 12 4 -20 -20 -19 -20 -20 -20 -20 -20
-14 -15 -20 -20 -6 6 7 14 13 19 27 7 3 26 10 2 9 5 -1 1 4 14 16 16 12 -15 -20 4 -11 -20 2 15 6 16 13 -11 -17 -20 -16 -20 -20 -20 -20 -20
-20 -20 -20 -7 16 11 1 13 8 17 30 8 -14 -20 3 4 2 23 12 30 29 31 6 8 12 -20 -18 -12 -20 -20 -20 2 15 11 16 -20 -10 -20 -20 -20 -20 -20 -20 -20
-20 -20 -20 12 17 17 20 11 2 26 12 -17 -20 -20 -20 -19 -11 27 30 19 21 18 15 14 -19 -20 -20 -20 -20 -20 -1 -20 -20 -20 -20 -20 -20 -20 -20 -20 -20 -20 -20 -20
-20 -20 17 27 27 16 22 13 -4 24 32 12 3 -20 -20 19 1 13 35 25 23 -8 -20 -20 -20 -20 -20 -20 -20 -20 -20 -20 -20 -14 -20 -20 -20 -20 -20 -20 -20 -20 -20 -20
2 9 20 31 28 22 23 12 1 3 33 19 -20 -13 -20 -20 -20 17 27 14 -17 -18 28 -20 -20 7 7 -14 -20 -20 -20 -20 -20 -20 -20 -20 -20 -20 -20 -20 -20 -20 -20 -20
-18 13 24 30 20 17 15 4 2 14 16 18 -1 -20 -20 -20 -20 2 20 25 12 8 20 35 25 -18 -8 -20 -20 -20 -20 -20 -20 -20 -20 -20 -20 -20 -20 -20 -20 -20 -20 -20
17 -4 18 23 12 18 10 32 15 -5 -18 31 -2 -7 -5 -20 -20 4 22 28 29 26 34 27 7 -20 0 -20 -20 -20 -20 -20 -20 -20 -20 -20 -20 -20 -20 -20 -20 -20 -20 -20
12 15 15 15 16 11 12 12 -1 -13 -1 32 -14 -20 -12 -4 15 30 34 32 31 27 33 24 3 -20 -18 4 -20 -20 -20 -20 -20 -20 -20 -20 -20 -20 -20 -20 -20 -20 -20 -20
15 14 10 14 29 32 26 -9 -12 33 27 23 1 -20 22 23 25 33 29 33 31 28 19 -5 15 12 -6 -19 -20 -20 -20 -20 -20 -20 -20 -20 -20 -20 -20 -20 -20 -20 -20 -20
3 -20 -20 -5 24 21 -7 7 -2 10 32 22 -5 -12 6 13 19 -14 -17 14 -5 -12 3 5 3 4 -17 -20 -20 -20 -20 -20 -20 -20 -20 -20 -20 -20 -20 -20 -20 -20 -20 -20
-20 -14 27 8 -0 -15 8 30 40 40 36 26 -20 -20 0 -12 -18 -20 -20 -20 -8 -15 -12 -3 -18 -20 -20 -20 -20 -20 -20 -20 -20 -20 -20 -20 -20 -20 -20 -20 -20 -20 -20 -20
8 25 -2 25 27 32 35 23 26 32 12 -20 -20 -19 -10 -8 -1 -20 -20 -20 -20 -20 -20 -20 -20 -20 -20 -20 -20 -20 -20 -20 -20 -20 -20 -20 -20 -20 -20 -20 -20 -20 -20 -20
18 30 32 35 35 19 5 -3 -17 -20 -20 -20 -15 4 13 13 -9 -20 -17 -18 -20 -20 -20 -20 -20 -20 -20 -20 -20 -20 -20 -20 -20 -20 -20 -20 -20 -20 -20 -20 -20 -20 -20 -20
32 30 21 20 10 8 -20 -20 -20 -20 -20 -1 -7 -10 10 4 -16 -20 -20 -20 -20 -20 -20 -20 -20 -20 -20 -20 -20 -20 -20 -20 -20 -20 -20 -20 -20 -20 -20 -20 -20 -20 -20 -20
25 15 13 18 -7 -20 -20 -9 5 -4 -20 -20 -20 -20 -2 -18 -20 -20 -20 -20 -20 -20 -20 -20 -20 -20 -20 -20 -20 -20 -20 -20 -20 -20 -20 -20 -20 -20 -20 -20 -20 -20 -20 -20
17 7 -16 -20 -20 -20 -20 -20 -20 -20 -20 -20 -20 -20 -20 -19 -20 -20 -20 -20 -20 -20 -20 -20 -20 -20 -20 -20 -20 -20 -20 -20 -20 -20 -20 -20 -20 -20 -20 -20 -20 -20 -20 -20
3 -9 -15 -20 -20 -20 -20 -19 -18 -20 -20 -20 -20 -20 -20 -20 -20 -20 -20 -20 -20 -20 -16 -16 -18 -20 -20 -20 -20 -20 -20 -20 -20 -20 -20 -20 -20 -20 -20 -20 -20 -20 -20 -20
-20 -20 -20 -20 -20 -17 -17 -9 -20 -20 -20 -20 -20 -20 -20 -20 -20 -20 -20 -20 -20 -19 -20 -20 -20 -20 -20 -20 -20 -20 -20 -20 -20 -20 -20 -20 -20 -20 -20 -20 -20 -20 -20 -20

GFSNW_prec_radar_153.txt.gz
Reflectivity
13 6 -20 -20 -20 -20 -20 15 7 -11 -20 -0 1 6 -20 -20 -20 -10 -10 -10 -20 -20 -20 -20 -20 -20 -20 -20 -20 -20 -20 -20 -20 -20 -20 -20 -20 -20 -20 22 -18 20 22 21
17 11 -13 -20 -20 -20 7 13 10 10 13 -1 -1 -20 -20 -20 -20 -20 -20 -20 -20 -20 -20 -20 -20 -20 -20 -20 -20 -20 -20 -20 -20 -20 -20 -20 -20 -20 -20 -20 -18 15 23 11
14 23 -1 -20 -20 -20 21 11 13 4 17 -20 -20 -20 -20 -20 -20 -20 -20 -20 -20 -20 -20 -20 -20 -20 -20 -20 -20 -20 -20 -20 -20 -20 -20 -9 -20 -6 11 14 22 2 13 19
25 5 -5 -20 -20 -20 17 14 6 -14 13 7 -20 -20 -20 -20 -20 -20 -20 -20 -20 -20 -20 -20 -20 -20 -20 -20 -20 -20 -20 -20 -20 -20 -20 -20 -20 -20 -20 -20 -20 22 12 -20
27 23 33 -20 -20 -20 21 -19 8 -20 -20 -20 -20 -20 -20 -20 -20 -20 -20 -20 -20 -20 -20 -20 -20 -0 5 3 -20 -0 -20 -20 -20 3 -20 -20 -20 -20 -20 -20 -20 -20 -20 -20
40 26 29 2 -20 -20 16 -19 -15 -20 -18 2 6 -1 -20 -20 -20 -20 -20 -20 -20 -20 -20 -20 -19 -20 -19 -20 -8 -1 6 5 7 8 -20 -20 -12 -20 -20 -20 -20 -20 -8 -20
37 26 34 12 -19 -20 -20 -20 6 9 13 -12 -15 -20 -20 -20 -20 -20 -20 -20 -15 -20 -20 -20 -20 -20 -7 -3 6 -20 -4 7 7 9 2 9 -20 -20 -20 -20 -20 -20 -20 -20
35 38 37 19 -6 -15 18 -20 -1 17 12 -0 -10 1 -20 -20 -20 -20 -20 -20 -20 -20 13 14 3 -4 -7 -20 -20 -3 -19 6 6 14 10 -20 -20 -20 13 -6 -20 -20 -20 -20
26 36 32 20 -16 -20 19 -20 -18 14 18 10 -20 -20 -20 -15 -18 -10 -18 -20 -20 -18 9 14 11 -10 7 -19 8 -20 -1 2 -13 13 9 5 9 14 -20 -20 -18 -12 -20 -20
31 31 33 10 -18 -4 13 19 6 -11 20 -20 -12 -18 7 -3 10 12 9 -19 21 21 19 15 13 7 -20 13 13 18 -15 12 16 16 16 -16 -20 -2 -20 -16 6 13 -13 -20
19 8 17 -9 -20 12 17 9 18 21 16 13 -20 -14 7 1 -6 12 -6 1 -10 19 11 15 12 10 14 18 -1 12 -9 11 16 8 13 10 -20 -16 4 -6 -17 -20 -20 -20
18 11 16 24 9 -13 18 17 15 20 22 18 -16 -20 -20 -20 -19 18 19 -17 26 18 27 25 22 23 17 14 20 -6 20 -19 18 22 19 8 -20 -20 -20 -20 -20 -20 -20 -20
31 11 3 -20 -18 -4 14 18 21 19 12 -3 -18 -20 -20 -20 -20 -20 12 -20 10 -10 -14 17 19 24 21 21 14 -14 30 -6 -11 23 -20 -20 -20 -20 -20 -20 -20 -20 -20 -20
22 -1 -19 -19 3 -7 16 17 21 20 -6 14 -20 -20 -20 -20 -20 -20 -12 -11 16 10 18 9 23 24 20 20 22 21 1 5 21 16 -20 -20 -20 -20 -20 -20 -20 -20 -20 -20
-20 -18 -20 -20 5 -20 14 21 17 16 8 18 1 -18 -20 -20 -8 0 -20 -3 8 17 22 33 27 -2 21 19 15 -20 -20 -8 -3 17 8 -13 -10 -15 -20 -20 -20 -20 -20 -20
-20 -3 11 9 -20 0 22 35 8 3 21 24 3 -20 -20 -20 -5 21 6 8 8 19 27 17 13 -1 21 21 16 -20 -20 -20 -20 17 -14 -20 -20 -20 -20 -20 -20 -20 -20 -20
6 -7 -20 -20 12 35 33 31 15 11 7 12 9 -13 -20 -20 -17 -2 8 12 31 24 28 23 3 -5 17 15 -17 3 -20 -20 -20 -20 -20 -20 -20 -20 -20 -20 -20 -20 -20 -20
-20 -8 12 20 17 29 26 28 6 7 5 4 11 -12 12 -13 -17 -6 -6 22 16 18 32 25 5 -10 16 19 -5 -17 -20 -20 -20 -20 -20 -20 -20 -20 -20 -20 -20 -20 -20 -20
6 22 34 31 32 31 19 -20 9 -19 7 14 11 1 14 -5 -2 28 31 26 25 30 26 14 5 24 11 -20 -20 -20 -20 -20 -20 -4 -17 -20 -20 -20 -20 -20 -20 -20 -20 -20
28 26 15 14 2 -6 -20 14 32 31 33 16 6 9 20 -12 23 32 28 16 23 14 9 4 12 -1 -20 -20 -20 -20 -20 -20 -20 -20 -20 -20 -20 -20 -20 -20 -20 -20 -20 -20
13 6 10 16 -17 19 20 24 12 -2 9 -0 -10 -20 -20 -20 21 16 23 16 10 8 16 9 16 1 -14 -20 -20 -20 -20 -20 -20 -20 -20 -20 -20 -20 -20 -20 -20 -20 -20 -20
-1 -11 -3 19 23 22 4 11 15 15 7 -1 1 -0 7 2 -4 20 6 8 -20 2 -20 9 -3 4 -20 -20 -20 -20 -20 -20 -20 -20 -20 -20 -20 -20 -20 -20 -20 -20 -20 -20
-18 6 18 26 10 18 8 18 16 21 20 9 -7 8 -1 5 25 22 1 6 8 -19 3 -17 -8 -20 -20 -12 -20 -20 -20 -20 -20 -20 -20 -20 -20 -20 -20 -20 -20 -20 -20 -20
15 7 2 10 3 1 2 21 18 -9 7 1 12 1 8 19 17 9 -3 -1 -20 2 4 -19 1 -19 -20 -20 -20 -20 -20 -20 -20 -20 -20 -20 -20 -20 -20 -20 -20 -20 -20 -20
12 2 11 -0 -0 -7 -20 -12 -12 -15 3 9 23 21 15 6 -4 -20 -20 -7 -15 -9 -19 -4 -20 -20 -20 -20 -20 -20 -20 1 -20 -20 -20 -20 -20 -20 -20 -20 -20 -20 -20 -20
0 1 10 6 6 13 11 10 3 -14 8 21 -8 -12 -10 5 -11 -20 -20 -20 -20 -8 -19 -9 -20 -20 -20 -20 -20 -20 -20 -20 -20 -20 -20 -20 -20 -20 -20 -20 -20 -20 -20 -20
6 14 -5 10 6 9 3 -9 5 -4 21 20 -20 -20 -18 -18 -20 -20 -20 -14 -3 -18 -16 -0 -19 -20 -20 -20 -20 -20 -20 -20 -20 -20 -20 -20 -20 -20 -20 -20 -20 -20 -20 -20